Location: Elkol
(41.7238°N, 110.6124°W)
Time: 06:59:08
(UTC+00:00)

Envisat - Pass Details

Date: 23 January 2022
Orbit: 764 x 765 km, 98.2° (Epoch: 21 May)

Event Time Altitude Azimuth Distance (km) Brightness Sun altitude
Rises 12:50:01 0° 6° (N) 3,239 6.2 -20.9°
Reaches altitude 10° 12:52:24 10° 1° (N) 2,309 5.4 -20.4°
Maximum altitude 12:57:15 47° 289° (WNW) 1,015 3.2 -19.5°
Drops below altitude 10° 13:02:04 10° 217° (SW) 2,295 5.2 -18.6°
Sets 13:04:26 0° 211° (SSW) 3,217 6.0 -18.2°
